Location: Newark
(43.4306°N, 0.3089°E)
Time: 03:04:30
(UTC+00:00)

Transit 2A - All Passes

Search period start: 22 August 2019 00:00
Search period end: 01 September 2019 00:00
Orbit: 597 x 962 km, 66.7° (Epoch: 20 August)

Date Brightness Start Highest point End Pass type
(mag) Time Alt. Az. Time Alt. Az. Time Alt. Az.
22 Aug - 08:07:39 10° SSE 08:12:03 21° ESE 08:16:14 10° ENE daylight
22 Aug - 09:48:41 10° SW 09:54:50 71° WNW 10:00:31 10° NNE daylight
22 Aug - 11:35:17 10° WNW 11:38:57 17° NW 11:42:27 10° N daylight
22 Aug - 16:52:59 10° N 16:56:35 20° NE 16:59:58 10° E daylight
22 Aug - 18:35:32 10° NW 18:40:16 62° WSW 18:44:37 10° SSE daylight
23 Aug - 07:35:08 10° SE 07:38:09 14° ESE 07:41:05 10° ENE daylight
23 Aug - 09:14:30 10° SSW 09:20:42 85° ESE 09:26:25 10° NNE daylight
23 Aug - 11:00:05 10° W 11:04:32 21° NW 11:08:44 10° N daylight
23 Aug - 16:19:19 10° N 16:22:09 15° NE 16:24:52 10° ENE daylight
23 Aug - 18:01:21 10° NNW 18:06:11 87° ENE 18:10:37 10° SSE daylight
24 Aug - 08:40:32 10° SSW 08:46:37 61° ESE 08:52:14 10° NE daylight
24 Aug - 10:25:06 10° WSW 10:30:10 27° NW 10:34:55 10° NNE daylight
24 Aug - 15:45:59 10° NNE 15:47:39 12° NNE 15:49:17 10° NE daylight
24 Aug - 17:27:16 10° NNW 17:32:03 58° NE 17:36:25 10° SE daylight
24 Aug - 19:11:51 10° WNW 19:14:34 15° WSW 19:17:11 10° SW visible
25 Aug - 08:06:47 10° S 08:12:34 44° ESE 08:17:58 10° NE daylight
25 Aug - 09:50:21 10° WSW 09:55:53 36° NW 10:01:01 10° NNE daylight
25 Aug - 16:53:16 10° NNW 16:57:50 39° NE 17:02:01 10° ESE daylight
25 Aug - 18:36:59 10° NW 18:40:42 24° WSW 18:44:13 10° SSW daylight
26 Aug - 07:33:16 10° S 07:38:34 31° ESE 07:43:33 10° NE daylight
26 Aug - 09:15:46 10° SW 09:21:38 48° NW 09:27:04 10° NNE daylight
26 Aug - 11:03:55 10° NW 11:06:08 12° NNW 11:08:15 10° N daylight
26 Aug - 16:19:21 10° NNW 16:23:33 28° NE 16:27:27 10° ESE daylight
26 Aug - 18:02:28 10° NW 18:06:46 36° WSW 18:10:47 10° S daylight
27 Aug - 07:00:04 10° SSE 07:04:37 22° ESE 07:08:56 10° ENE daylight
27 Aug - 08:41:23 10° SW 08:47:27 66° WNW 08:53:03 10° NNE daylight
27 Aug - 10:28:15 10° WNW 10:31:38 15° NW 10:34:51 10° N daylight
27 Aug - 15:45:32 10° N 15:49:12 21° NE 15:52:38 10° E daylight
27 Aug - 17:28:09 10° NW 17:32:47 56° WSW 17:37:04 10° SSE daylight
28 Aug - 06:27:23 10° SE 06:30:42 15° ESE 06:33:55 10° ENE daylight
28 Aug - 08:07:10 10° SSW 08:13:19 90° WNW 08:18:58 10° NNE daylight
28 Aug - 09:52:58 10° W 09:57:12 20° NW 10:01:11 10° N daylight
28 Aug - 15:11:50 10° N 15:14:47 16° NE 15:17:35 10° ENE daylight
28 Aug - 16:53:57 10° NNW 16:58:43 86° WSW 17:03:07 10° SSE daylight
29 Aug - 07:33:09 10° SSW 07:39:13 66° ESE 07:44:49 10° NE daylight
29 Aug - 09:17:56 10° W 09:22:50 26° NW 09:27:23 10° N daylight
29 Aug - 14:38:27 10° N 14:40:18 12° NNE 14:42:07 10° NE daylight
29 Aug - 16:19:52 10° NNW 16:24:36 63° NE 16:28:58 10° SE daylight
29 Aug - 18:04:44 10° WNW 18:07:03 14° WSW 18:09:19 10° SW daylight
30 Aug - 06:59:20 10° S 07:05:09 47° ESE 07:10:34 10° NE daylight
30 Aug - 08:43:08 10° WSW 08:48:31 34° NW 08:53:31 10° NNE daylight
30 Aug - 15:45:51 10° NNW 15:50:24 42° NE 15:54:37 10° SE daylight
30 Aug - 17:29:43 10° WNW 17:33:12 21° WSW 17:36:31 10° SSW daylight
31 Aug - 06:25:46 10° S 06:31:09 33° ESE 06:36:11 10° NE daylight
31 Aug - 08:08:31 10° SW 08:14:17 45° NW 08:19:35 10° NNE daylight
31 Aug - 09:57:07 10° NW 09:58:48 11° NNW 10:00:27 10° NNW daylight
31 Aug - 15:11:55 10° NNW 15:16:08 30° NE 15:20:04 10° ESE daylight
31 Aug - 16:55:08 10° NW 16:59:16 33° WSW 17:03:11 10° S daylight
